User: anonymous
Location: Albany
(35.0000°S, 118.0000°E)
Time: 22:55:01
(UTC-04:00)
Language:

Cosmos 2227 Rocket - Orbit

View from above orbital plane
View from above orbital plane
View from above satellite
View from above satellite

Ground track
Ground track

The orbit data is extracted from the following two-line orbital elements,

1 22285U 92093B   14258.83292023  .00000041  00000-0  45562-4 0  3930
2 22285 071.0230 161.1808 0005720 240.3400 119.7153 14.14924590120320
Epoch (UTC): 15 September 2014 19:59:24
Eccentricity: 0.0005720
inclination: 71.0230°
perigee height: 838 km
apogee height: 847 km
right ascension of ascending node: 161.1808°
argument of perigee: 240.3400°
revolutions per day: 14.14924590
mean anomaly at epoch: 119.7153°
orbit number at epoch: 12032

The dashed part of the orbit path shows where the satellite is in the earth's shadow,  

DLR